P/2019 E1 ( Scotti )

Japanese version
Home page
Updated on March 11, 2019

---------------------------------------------------------------------

* Profile

Recovery Date March 9, 2019
Magnitude 20.3 mag
Recoverer E. Schwab (Egelsbach, Germany), D. Abreu (European Space Agency's Optical Ground Station at Tenerife, Spain)

* Orbital Elements

Epoch 2020 July 10.0 TT = JDT 2459040.5
T 2020 July 11.30192 TT                                 MPCW
q   5.0167158            (2000.0)            P               Q
n   0.05666080     Peri.  354.97025     -0.75359043     +0.64757351
a   6.7134778      Node   226.05927     -0.59750081     -0.74641318
e   0.2527396      Incl.    9.02208     -0.27403327     -0.15334898
P  17.39
From 75 observations 2002 Apr. 5-2019 Mar. 10, mean residual 0".4.

* Magnitudes Graph

        m1 = 9.0 + 5 log d + 10.0 log r

---------------------------------------------------------------------

The orbital elements are published on M.P.E.C. 2019-E80.
The magnitudes graphs are made with Comet for Windows.

---------------------------------------------------------------------

Copyright(C) Seiichi Yoshida (comet@aerith.net). All rights reserved.